User: anonymous   Login
Location: South Range
(44.4886°N, 65.7879°W)
Time: 13:32:29
(UTC-03:00)
Language:

Iridium 56 - Orbit

View from above orbital plane
View from above orbital plane
View from above satellite
View from above satellite

Ground track
Ground track

The orbit data is extracted from the following two-line orbital elements,

1 25170U 98010B   17263.49938833  .00000146  00000-0  44993-4 0  9993
2 25170  86.3957 310.6672 0002107  87.2695 272.8742 14.34218460 25425
Epoch (UTC): 20 September 2017 11:59:07
Eccentricity: 0.0002107
inclination: 86.3957°
perigee height: 776 km
apogee height: 779 km
right ascension of ascending node: 310.6672°
argument of perigee: 87.2695°
revolutions per day: 14.34218460
mean anomaly at epoch: 272.8742°
orbit number at epoch: 2542

The dashed part of the orbit path shows where the satellite is in the earth's shadow,  

DLR